Location: Marcé
(47.5801°N, 0.3280°W)
Time: 14:49:20
(UTC+01:00)

Vanguard 3 - Pass Details

Date: 08 December 2021
Orbit: 508 x 3260 km, 33.3° (Epoch: 20 January)

Event Time Altitude Azimuth Distance (km) Brightness Sun altitude
Rises 09:07:10 0° 275° (W) 7,180 11.5 3.3°
Reaches altitude 10° 09:13:15 10° 266° (W) 5,974 11.2 4.1°
Maximum altitude 09:26:36 27° 218° (SW) 3,899 10.7 5.8°
Drops below altitude 10° 09:36:14 10° 167° (SSE) 4,234 12.0 6.9°
Sets 09:39:41 0° 155° (SSE) 4,838 12.8 7.3°
